User: anonymous   Login
Location: Mascot Post Office (historical)
(40.2645°N, 99.5462°W)
Time: 21:22:18
(UTC+00:00)
Language:

Meteor 1-18 Rocket - Orbit

View from above orbital plane
View from above orbital plane
View from above satellite
View from above satellite

Ground track
Ground track

The orbit data is extracted from the following two-line orbital elements,

1  7364U 74052B   20272.45025234 +.00000048 +00000-0 +21620-4 0  9993
2  7364 081.2302 066.7164 0050218 015.8344 344.4380 14.06026360369652
Epoch (UTC): 28 September 2020 10:48:21
Eccentricity: 0.0050218
inclination: 81.2302°
perigee height: 836 km
apogee height: 909 km
right ascension of ascending node: 66.7164°
argument of perigee: 15.8344°
revolutions per day: 14.06026360
mean anomaly at epoch: 344.4380°
orbit number at epoch: 36965

The dashed part of the orbit path shows where the satellite is in the earth's shadow,  

DLR